Location: Benalto
(52.3088°N, 114.2787°W)
Time: 12:37:34
(UTC+00:00)

N. Korean satellite - Pass Details

Date: 03 December 2021
Orbit: 447 x 490 km, 97.3° (Epoch: 27 January)

Event Time Altitude Azimuth Distance (km) Brightness Sun altitude
Rises 13:06:32 0° 13° (NNE) 2,478 10.2 -20.4°
Reaches altitude 10° 13:08:35 10° 13° (NNE) 1,595 9.2 -20.1°
Maximum altitude 13:12:00 87° 287° (WNW) 457 6.3 -19.6°
Drops below altitude 10° 13:15:23 10° 196° (SSW) 1,573 9.1 -19.1°
Sets 13:17:23 0° 196° (SSW) 2,439 10.1 -18.8°
